Time,TemperatureF,DewpointF,PressureIn,WindDirection,WindDirectionDegrees,WindSpeedMPH,WindSpeedGustMPH,Humidity,HourlyPrecipIn,Conditions,Clouds,dailyrainin,SoftwareType,DateUTC
2013-03-01 00:00:00,33.7,30.8,29.62,West,270,0.0,2.0,89,0.00,,---,0.00,VWS V14.01,2013-03-01 05:00:00,
2013-03-01 00:15:00,34.4,31.5,29.62,West,270,0.0,3.0,89,0.00,,---,0.00,VWS V14.01,2013-03-01 05:15:00,
2013-03-01 00:30:00,34.9,31.4,29.61,NW,315,1.0,4.0,87,0.00,,---,0.00,VWS V14.01,2013-03-01 05:30:00,
2013-03-01 00:45:00,35.0,31.2,29.62,NW,315,1.0,4.0,86,0.00,,---,0.00,VWS V14.01,2013-03-01 05:45:00,
2013-03-01 01:00:00,35.5,31.1,29.62,WNW,292,2.0,7.0,84,0.00,,---,0.00,VWS V14.01,2013-03-01 06:00:00,
2013-03-01 01:15:00,35.6,31.0,29.62,NNW,338,1.0,5.0,83,0.00,,---,0.00,VWS V14.01,2013-03-01 06:15:00,
2013-03-01 01:30:00,35.0,30.4,29.62,WNW,292,0.0,1.0,83,0.00,,---,0.00,VWS V14.01,2013-03-01 06:30:00,
2013-03-01 01:45:00,34.6,30.6,29.62,WNW,292,0.0,3.0,85,0.00,,---,0.00,VWS V14.01,2013-03-01 06:45:00,
2013-03-01 02:00:00,34.9,30.6,29.63,NW,315,1.0,4.0,84,0.00,,---,0.00,VWS V14.01,2013-03-01 07:00:00,
2013-03-01 02:15:00,35.2,30.6,29.63,West,270,1.0,5.0,83,0.00,,---,0.00,VWS V14.01,2013-03-01 07:15:00,
2013-03-01 02:30:00,35.0,30.1,29.63,NW,315,1.0,4.0,82,0.00,,---,0.00,VWS V14.01,2013-03-01 07:30:00,
2013-03-01 02:45:00,35.2,30.0,29.63,West,270,1.0,6.0,81,0.00,,---,0.00,VWS V14.01,2013-03-01 07:45:00,
2013-03-01 03:00:00,35.2,30.0,29.63,WNW,292,2.0,6.0,81,0.00,,---,0.00,VWS V14.01,2013-03-01 08:00:00,
2013-03-01 03:15:00,34.9,30.0,29.64,WNW,292,0.0,3.0,82,0.00,,---,0.00,VWS V14.01,2013-03-01 08:15:00,
2013-03-01 03:30:00,34.1,29.2,29.65,WNW,292,0.0,0.0,82,0.00,,---,0.00,VWS V14.01,2013-03-01 08:30:00,
2013-03-01 03:45:00,33.8,29.5,29.64,WNW,292,0.0,0.0,84,0.00,,---,0.00,VWS V14.01,2013-03-01 08:45:00,
2013-03-01 04:00:00,33.1,29.1,29.64,WNW,292,0.0,1.0,85,0.00,,---,0.00,VWS V14.01,2013-03-01 09:00:00,
2013-03-01 04:15:00,33.4,29.4,29.64,NNW,338,0.0,3.0,85,0.00,,---,0.00,VWS V14.01,2013-03-01 09:15:00,
2013-03-01 04:30:00,32.4,28.4,29.65,NNW,338,0.0,1.0,85,0.00,,---,0.00,VWS V14.01,2013-03-01 09:30:00,
2013-03-01 04:45:00,31.5,28.1,29.65,NNW,338,0.0,0.0,87,0.00,,---,0.00,VWS V14.01,2013-03-01 09:45:00,
2013-03-01 05:00:00,31.9,28.8,29.66,NNW,338,0.0,1.0,88,0.00,,---,0.00,VWS V14.01,2013-03-01 10:00:00,
2013-03-01 05:15:00,31.2,28.3,29.66,NNW,338,0.0,2.0,89,0.00,,---,0.00,VWS V14.01,2013-03-01 10:15:00,
2013-03-01 05:33:00,32.4,30.3,29.66,NNE,18,1.0,1.0,92,0.00,,---,0.00,VWS V14.01,2013-03-01 10:33:00,
2013-03-01 05:35:00,32.7,30.6,29.66,NNE,18,0.0,2.0,92,0.00,,---,0.00,VWS V14.01,2013-03-01 10:35:00,
2013-03-01 05:39:00,33.1,30.8,29.66,WNW,294,2.0,3.0,91,0.00,,---,0.00,VWS V14.01,2013-03-01 10:39:00,
2013-03-01 05:43:00,33.8,31.2,29.66,West,269,0.0,4.0,90,0.00,,---,0.00,VWS V14.01,2013-03-01 10:43:00,
2013-03-01 05:47:00,34.6,31.7,29.66,West,272,4.0,5.0,89,0.00,,---,0.00,VWS V14.01,2013-03-01 10:47:00,
2013-03-01 05:49:00,34.9,31.1,29.66,WSW,239,4.0,7.0,86,0.00,,---,0.00,VWS V14.01,2013-03-01 10:49:00,
2013-03-01 05:51:00,35.2,31.1,29.66,NW,309,6.0,7.0,85,0.00,,---,0.00,VWS V14.01,2013-03-01 10:51:00,
2013-03-01 05:55:00,35.8,31.1,29.66,WSW,244,5.0,7.0,83,0.00,,---,0.00,VWS V14.01,2013-03-01 10:55:00,
2013-03-01 05:57:00,35.9,31.0,29.66,West,269,2.0,7.0,82,0.00,,---,0.00,VWS V14.01,2013-03-01 10:57:00,
2013-03-01 05:59:00,35.9,30.6,29.66,West,277,2.0,7.0,81,0.00,,---,0.00,VWS V14.01,2013-03-01 10:59:00,
2013-03-01 06:01:00,36.0,30.8,29.66,WSW,258,2.0,3.0,81,0.00,,---,0.00,VWS V14.01,2013-03-01 11:01:00,
2013-03-01 06:03:00,36.0,30.4,29.66,WSW,253,4.0,5.0,80,0.00,,---,0.00,VWS V14.01,2013-03-01 11:03:00,
2013-03-01 06:07:00,36.2,30.3,29.66,WSW,255,4.0,6.0,79,0.00,,---,0.00,VWS V14.01,2013-03-01 11:07:00,
2013-03-01 06:09:00,36.2,30.0,29.66,West,267,2.0,6.0,78,0.00,,---,0.00,VWS V14.01,2013-03-01 11:09:00,
2013-03-01 06:13:00,36.3,30.1,29.66,WNW,291,0.0,7.0,78,0.00,,---,0.00,VWS V14.01,2013-03-01 11:13:00,
2013-03-01 06:15:00,36.3,30.1,29.66,WNW,291,1.0,7.0,78,0.00,,---,0.00,VWS V14.01,2013-03-01 11:15:00,
2013-03-01 06:21:00,36.3,30.1,29.66,WNW,291,0.0,1.0,78,0.00,,---,0.00,VWS V14.01,2013-03-01 11:21:00,
2013-03-01 06:23:00,36.2,29.7,29.66,WNW,291,0.0,1.0,77,0.00,,---,0.00,VWS V14.01,2013-03-01 11:23:00,
2013-03-01 06:29:00,35.9,29.7,29.66,WNW,291,0.0,1.0,78,0.00,,---,0.00,VWS V14.01,2013-03-01 11:29:00,
2013-03-01 06:30:00,35.9,29.7,29.66,WNW,291,0.0,1.0,78,0.00,,---,0.00,VWS V14.01,2013-03-01 11:30:00,
2013-03-01 06:35:00,35.6,29.4,29.67,WNW,291,0.0,0.0,78,0.00,,---,0.00,VWS V14.01,2013-03-01 11:35:00,
2013-03-01 06:41:00,35.3,29.1,29.67,WNW,291,0.0,1.0,78,0.00,,---,0.00,VWS V14.01,2013-03-01 11:41:00,
2013-03-01 06:43:00,35.2,29.4,29.67,WNW,291,0.0,1.0,79,0.00,,---,0.00,VWS V14.01,2013-03-01 11:43:00,
2013-03-01 06:47:00,34.9,29.1,29.67,WNW,291,0.0,1.0,79,0.00,,---,0.00,VWS V14.01,2013-03-01 11:47:00,
2013-03-01 06:51:00,34.9,29.4,29.67,WNW,291,1.0,3.0,80,0.00,,---,0.00,VWS V14.01,2013-03-01 11:51:00,
2013-03-01 06:53:00,34.9,29.4,29.68,WNW,291,0.0,3.0,80,0.00,,---,0.00,VWS V14.01,2013-03-01 11:53:00,
2013-03-01 07:00:00,35.0,29.5,29.68,WNW,303,3.0,7.0,80,0.00,,---,0.00,VWS V14.01,2013-03-01 12:00:00,
2013-03-01 07:04:00,35.3,29.1,29.68,WNW,286,2.0,5.0,78,0.00,,---,0.00,VWS V14.01,2013-03-01 12:04:00,
2013-03-01 07:06:00,35.5,29.3,29.68,NW,316,3.0,5.0,78,0.00,,---,0.00,VWS V14.01,2013-03-01 12:06:00,
2013-03-01 07:10:00,35.8,29.3,29.68,NW,312,4.0,7.0,77,0.00,,---,0.00,VWS V14.01,2013-03-01 12:10:00,
2013-03-01 07:12:00,36.0,28.9,29.68,NW,317,2.0,9.0,75,0.00,,---,0.00,VWS V14.01,2013-03-01 12:12:00,
2013-03-01 07:14:00,36.2,28.7,29.68,West,277,5.0,9.0,74,0.00,,---,0.00,VWS V14.01,2013-03-01 12:14:00,
2013-03-01 07:16:00,36.3,28.5,29.68,NW,317,2.0,6.0,73,0.00,,---,0.00,VWS V14.01,2013-03-01 12:16:00,
2013-03-01 07:18:00,36.5,28.7,29.68,West,273,2.0,6.0,73,0.00,,---,0.00,VWS V14.01,2013-03-01 12:18:00,
2013-03-01 07:20:00,36.6,28.4,29.69,West,279,5.0,7.0,72,0.00,,---,0.00,VWS V14.01,2013-03-01 12:20:00,
2013-03-01 07:26:00,37.0,28.1,29.69,WNW,282,2.0,9.0,70,0.00,,---,0.00,VWS V14.01,2013-03-01 12:26:00,
2013-03-01 07:28:00,37.2,28.3,29.69,WSW,247,4.0,9.0,70,0.00,,---,0.00,VWS V14.01,2013-03-01 12:28:00,
2013-03-01 07:32:00,37.2,28.0,29.69,WNW,294,4.0,8.0,69,0.00,,---,0.00,VWS V14.01,2013-03-01 12:32:00,
2013-03-01 07:36:00,37.3,27.7,29.70,West,268,5.0,9.0,68,0.00,,---,0.00,VWS V14.01,2013-03-01 12:36:00,
2013-03-01 07:38:00,37.5,27.9,29.69,West,276,1.0,9.0,68,0.00,,---,0.00,VWS V14.01,2013-03-01 12:38:00,
2013-03-01 07:40:00,37.5,27.9,29.69,West,277,4.0,9.0,68,0.00,,---,0.00,VWS V14.01,2013-03-01 12:40:00,
2013-03-01 07:42:00,37.6,27.6,29.70,West,262,3.0,9.0,67,0.00,,---,0.00,VWS V14.01,2013-03-01 12:42:00,
2013-03-01 07:45:00,37.8,28.2,29.70,NNW,338,6.0,11.0,68,0.00,,---,0.00,VWS V14.01,2013-03-01 12:45:00,
2013-03-01 07:48:00,37.9,27.9,29.70,WNW,293,3.0,10.0,67,0.00,,---,0.00,VWS V14.01,2013-03-01 12:48:00,
2013-03-01 07:54:00,38.3,28.3,29.70,West,263,4.0,10.0,67,0.00,,---,0.00,VWS V14.01,2013-03-01 12:54:00,
2013-03-01 08:00:00,38.3,28.3,29.70,WNW,286,7.0,11.0,67,0.00,,---,0.00,VWS V14.01,2013-03-01 13:00:00,
2013-03-01 08:06:00,38.5,28.5,29.70,WSW,253,5.0,11.0,67,0.00,,---,0.00,VWS V14.01,2013-03-01 13:06:00,
2013-03-01 08:08:00,38.6,28.6,29.70,WSW,246,1.0,11.0,67,0.00,,---,0.00,VWS V14.01,2013-03-01 13:08:00,
2013-03-01 08:10:00,38.6,28.6,29.70,WNW,283,3.0,11.0,67,0.00,,---,0.00,VWS V14.01,2013-03-01 13:10:00,
2013-03-01 08:12:00,38.6,28.6,29.70,West,280,6.0,11.0,67,0.00,,---,0.00,VWS V14.01,2013-03-01 13:12:00,
2013-03-01 08:16:00,38.8,28.4,29.70,West,276,5.0,6.0,66,0.00,,---,0.00,VWS V14.01,2013-03-01 13:16:00,
2013-03-01 08:20:00,38.9,28.1,29.70,NW,319,6.0,10.0,65,0.00,,---,0.00,VWS V14.01,2013-03-01 13:20:00,
2013-03-01 08:24:00,38.9,28.1,29.70,NNW,333,6.0,10.0,65,0.00,,---,0.00,VWS V14.01,2013-03-01 13:24:00,
2013-03-01 08:26:00,39.1,28.3,29.70,WNW,298,3.0,10.0,65,0.00,,---,0.00,VWS V14.01,2013-03-01 13:26:00,
2013-03-01 08:30:00,39.2,28.4,29.70,NW,323,4.0,11.0,65,0.00,,---,0.00,VWS V14.01,2013-03-01 13:30:00,
2013-03-01 08:34:00,39.3,28.2,29.71,North,355,2.0,6.0,64,0.00,,---,0.00,VWS V14.01,2013-03-01 13:34:00,
2013-03-01 08:36:00,39.5,28.4,29.70,West,267,3.0,9.0,64,0.00,,---,0.00,VWS V14.01,2013-03-01 13:36:00,
2013-03-01 08:40:00,39.6,28.4,29.70,West,280,2.0,12.0,64,0.00,,---,0.00,VWS V14.01,2013-03-01 13:40:00,
2013-03-01 08:44:00,39.8,28.6,29.71,West,273,5.0,12.0,64,0.00,,---,0.00,VWS V14.01,2013-03-01 13:44:00,
2013-03-01 08:45:00,39.8,28.2,29.71,NW,311,4.0,12.0,63,0.00,,---,0.00,VWS V14.01,2013-03-01 13:45:00,
2013-03-01 08:46:00,39.9,28.7,29.71,NNW,343,4.0,4.0,64,0.00,,---,0.00,VWS V14.01,2013-03-01 13:46:00,
2013-03-01 08:50:00,39.9,28.0,29.71,WNW,288,13.0,13.0,62,0.00,,---,0.00,VWS V14.01,2013-03-01 13:50:00,
2013-03-01 08:52:00,39.9,28.0,29.71,WNW,285,4.0,13.0,62,0.00,,---,0.00,VWS V14.01,2013-03-01 13:52:00,
2013-03-01 08:54:00,39.8,27.9,29.71,West,273,6.0,13.0,62,0.00,,---,0.00,VWS V14.01,2013-03-01 13:54:00,
2013-03-01 08:56:00,39.9,28.0,29.71,SW,236,4.0,13.0,62,0.00,,---,0.00,VWS V14.01,2013-03-01 13:56:00,
2013-03-01 08:58:00,39.8,27.9,29.71,WSW,238,4.0,13.0,62,0.00,,---,0.00,VWS V14.01,2013-03-01 13:58:00,
2013-03-01 09:00:00,39.9,28.0,29.71,West,264,8.0,16.0,62,0.00,,---,0.00,VWS V14.01,2013-03-01 14:00:00,
2013-03-01 09:02:00,39.9,28.0,29.71,East,100,5.0,8.0,62,0.00,,---,0.00,VWS V14.01,2013-03-01 14:02:00,
2013-03-01 09:04:00,40.1,28.1,29.71,NW,306,5.0,9.0,62,0.00,,---,0.00,VWS V14.01,2013-03-01 14:04:00,
2013-03-01 09:06:00,40.2,28.2,29.71,NNW,346,3.0,9.0,62,0.00,,---,0.00,VWS V14.01,2013-03-01 14:06:00,
2013-03-01 09:10:00,40.3,27.9,29.71,North,360,3.0,10.0,61,0.00,,---,0.00,VWS V14.01,2013-03-01 14:10:00,
2013-03-01 09:12:00,40.5,28.5,29.71,NW,304,1.0,10.0,62,0.00,,---,0.00,VWS V14.01,2013-03-01 14:12:00,
2013-03-01 09:15:00,40.9,28.5,29.71,NNW,327,1.0,11.0,61,0.00,,---,0.00,VWS V14.01,2013-03-01 14:15:00,
2013-03-01 09:16:00,40.9,28.5,29.71,West,264,6.0,6.0,61,0.00,,---,0.00,VWS V14.01,2013-03-01 14:16:00,
2013-03-01 09:20:00,41.1,27.9,29.71,NW,311,4.0,17.0,59,0.00,,---,0.00,VWS V14.01,2013-03-01 14:20:00,
2013-03-01 09:24:00,41.2,28.4,29.71,NE,38,2.0,17.0,60,0.00,,---,0.00,VWS V14.01,2013-03-01 14:24:00,
2013-03-01 09:26:00,41.3,28.5,29.71,North,355,2.0,17.0,60,0.00,,---,0.00,VWS V14.01,2013-03-01 14:26:00,
2013-03-01 09:28:00,41.5,28.7,29.71,SSW,194,6.0,17.0,60,0.00,,---,0.00,VWS V14.01,2013-03-01 14:28:00,
2013-03-01 09:34:00,41.5,28.3,29.71,NNW,337,4.0,9.0,59,0.00,,---,0.00,VWS V14.01,2013-03-01 14:34:00,
2013-03-01 09:38:00,41.8,28.1,29.71,NW,321,6.0,10.0,58,0.00,,---,0.00,VWS V14.01,2013-03-01 14:38:00,
2013-03-01 09:40:00,41.6,27.5,29.71,NW,318,3.0,10.0,57,0.00,,---,0.00,VWS V14.01,2013-03-01 14:40:00,
2013-03-01 09:42:00,41.8,27.7,29.71,NNE,22,4.0,10.0,57,0.00,,---,0.00,VWS V14.01,2013-03-01 14:42:00,
2013-03-01 09:44:00,41.8,27.7,29.71,WNW,292,7.0,10.0,57,0.00,,---,0.00,VWS V14.01,2013-03-01 14:44:00,
2013-03-01 09:46:00,41.9,27.4,29.71,West,271,7.0,8.0,56,0.00,,---,0.00,VWS V14.01,2013-03-01 14:46:00,
2013-03-01 09:50:00,42.3,27.7,29.71,NW,318,4.0,8.0,56,0.00,,---,0.00,VWS V14.01,2013-03-01 14:50:00,
2013-03-01 09:52:00,42.3,27.7,29.71,North,5,4.0,13.0,56,0.00,,---,0.00,VWS V14.01,2013-03-01 14:52:00,
2013-03-01 09:56:00,42.1,27.5,29.71,West,278,5.0,13.0,56,0.00,,---,0.00,VWS V14.01,2013-03-01 14:56:00,
2013-03-01 09:58:00,41.9,27.4,29.71,NW,325,4.0,13.0,56,0.00,,---,0.00,VWS V14.01,2013-03-01 14:58:00,
2013-03-01 10:00:00,41.6,26.6,29.71,WNW,297,8.0,13.0,55,0.00,,---,0.00,VWS V14.01,2013-03-01 15:00:00,
2013-03-01 10:02:00,41.6,27.1,29.71,NE,53,1.0,9.0,56,0.00,,---,0.00,VWS V14.01,2013-03-01 15:02:00,
2013-03-01 10:08:00,42.2,27.6,29.71,West,272,5.0,11.0,56,0.00,,---,0.00,VWS V14.01,2013-03-01 15:08:00,
2013-03-01 10:10:00,42.2,26.8,29.71,WNW,288,9.0,13.0,54,0.00,,---,0.00,VWS V14.01,2013-03-01 15:10:00,
2013-03-01 10:14:00,42.1,26.7,29.71,West,280,4.0,14.0,54,0.00,,---,0.00,VWS V14.01,2013-03-01 15:14:00,
2013-03-01 10:15:00,41.9,26.5,29.71,WNW,285,6.0,14.0,54,0.00,,---,0.00,VWS V14.01,2013-03-01 15:15:00,
2013-03-01 10:16:00,41.9,26.5,29.72,WSW,257,4.0,10.0,54,0.00,,---,0.00,VWS V14.01,2013-03-01 15:16:00,
2013-03-01 10:22:00,41.8,26.4,29.72,WNW,284,2.0,17.0,54,0.00,,---,0.00,VWS V14.01,2013-03-01 15:22:00,
2013-03-01 10:24:00,41.8,26.4,29.72,West,271,13.0,17.0,54,0.00,,---,0.00,VWS V14.01,2013-03-01 15:24:00,
2013-03-01 10:26:00,41.6,25.8,29.72,NW,318,4.0,17.0,53,0.00,,---,0.00,VWS V14.01,2013-03-01 15:26:00,
2013-03-01 10:28:00,41.6,26.6,29.71,West,270,7.0,17.0,55,0.00,,---,0.00,VWS V14.01,2013-03-01 15:28:00,
2013-03-01 10:30:00,41.6,26.6,29.71,North,355,4.0,17.0,55,0.00,,---,0.00,VWS V14.01,2013-03-01 15:30:00,
2013-03-01 10:32:00,41.6,26.6,29.72,West,276,5.0,10.0,55,0.00,,---,0.00,VWS V14.01,2013-03-01 15:32:00,
2013-03-01 10:36:00,41.5,26.5,29.72,WNW,290,5.0,10.0,55,0.00,,---,0.00,VWS V14.01,2013-03-01 15:36:00,
2013-03-01 10:38:00,41.5,26.5,29.71,West,276,3.0,10.0,55,0.00,,---,0.00,VWS V14.01,2013-03-01 15:38:00,
2013-03-01 10:44:00,41.6,27.1,29.71,NW,324,5.0,10.0,56,0.00,,---,0.00,VWS V14.01,2013-03-01 15:44:00,
2013-03-01 10:45:00,41.6,27.1,29.71,NNW,344,3.0,10.0,56,0.00,,---,0.00,VWS V14.01,2013-03-01 15:45:00,
2013-03-01 10:46:00,41.6,27.1,29.71,WNW,294,7.0,7.0,56,0.00,,---,0.00,VWS V14.01,2013-03-01 15:46:00,
2013-03-01 10:50:00,41.8,27.7,29.71,WNW,300,3.0,7.0,57,0.00,,---,0.00,VWS V14.01,2013-03-01 15:50:00,
2013-03-01 10:52:00,41.9,27.8,29.71,WNW,296,3.0,7.0,57,0.00,,---,0.00,VWS V14.01,2013-03-01 15:52:00,
2013-03-01 10:56:00,41.9,26.9,29.71,WSW,244,0.0,14.0,55,0.00,,---,0.00,VWS V14.01,2013-03-01 15:56:00,
2013-03-01 11:00:00,41.9,26.9,29.71,SW,216,2.0,14.0,55,0.00,,---,0.00,VWS V14.01,2013-03-01 16:00:00,
2013-03-01 11:06:00,41.9,26.9,29.71,NW,320,9.0,11.0,55,0.00,,---,0.00,VWS V14.01,2013-03-01 16:06:00,
2013-03-01 11:08:00,41.9,26.9,29.71,West,266,9.0,11.0,55,0.00,,---,0.00,VWS V14.01,2013-03-01 16:08:00,
2013-03-01 11:10:00,41.9,26.9,29.72,West,274,5.0,11.0,55,0.00,,---,0.00,VWS V14.01,2013-03-01 16:10:00,
2013-03-01 11:12:00,41.8,26.8,29.71,WSW,245,3.0,11.0,55,0.00,,---,0.00,VWS V14.01,2013-03-01 16:12:00,
2013-03-01 11:16:00,41.6,27.1,29.72,WNW,296,3.0,9.0,56,0.00,,---,0.00,VWS V14.01,2013-03-01 16:16:00,
2013-03-01 11:23:00,41.6,27.9,29.72,WSW,250,4.0,9.0,58,0.00,,---,0.00,VWS V14.01,2013-03-01 16:23:00,
2013-03-01 11:25:00,41.6,27.5,29.72,WSW,253,1.0,9.0,57,0.00,,---,0.00,VWS V14.01,2013-03-01 16:25:00,
2013-03-01 11:30:00,41.5,27.0,29.71,West,275,4.0,12.0,56,0.00,,---,0.00,VWS V14.01,2013-03-01 16:30:00,
2013-03-01 11:31:00,41.5,27.4,29.72,WNW,286,4.0,5.0,57,0.00,,---,0.00,VWS V14.01,2013-03-01 16:31:00,
2013-03-01 11:33:00,41.5,27.4,29.72,NW,319,9.0,9.0,57,0.00,,---,0.00,VWS V14.01,2013-03-01 16:33:00,
2013-03-01 11:37:00,41.5,27.0,29.72,NNW,330,5.0,9.0,56,0.00,,---,0.00,VWS V14.01,2013-03-01 16:37:00,
2013-03-01 11:43:00,41.6,27.1,29.71,West,274,5.0,14.0,56,0.00,,---,0.00,VWS V14.01,2013-03-01 16:43:00,
2013-03-01 11:45:00,41.8,27.3,29.71,WNW,282,3.0,14.0,56,0.00,,---,0.00,VWS V14.01,2013-03-01 16:45:00,
2013-03-01 11:51:00,42.3,27.3,29.71,West,281,1.0,10.0,55,0.00,,---,0.00,VWS V14.01,2013-03-01 16:51:00,
2013-03-01 11:53:00,42.5,27.9,29.71,WNW,283,3.0,12.0,56,0.00,,---,0.00,VWS V14.01,2013-03-01 16:53:00,
2013-03-01 11:57:00,42.6,27.1,29.71,WNW,302,4.0,12.0,54,0.00,,---,0.00,VWS V14.01,2013-03-01 16:57:00,
2013-03-01 11:59:00,42.8,27.3,29.71,WNW,292,11.0,14.0,54,0.00,,---,0.00,VWS V14.01,2013-03-01 16:59:00,
2013-03-01 12:00:00,42.6,26.2,29.71,WNW,285,7.0,14.0,52,0.00,,---,0.00,VWS V14.01,2013-03-01 17:00:00,
2013-03-01 12:07:00,43.5,27.5,29.71,NNE,19,1.0,11.0,53,0.00,,---,0.00,VWS V14.01,2013-03-01 17:07:00,
2013-03-01 12:09:00,43.9,29.2,29.71,West,281,2.0,11.0,56,0.00,,---,0.00,VWS V14.01,2013-03-01 17:09:00,
2013-03-01 12:11:00,44.2,28.2,29.71,WNW,294,2.0,11.0,53,0.00,,---,0.00,VWS V14.01,2013-03-01 17:11:00,
2013-03-01 12:15:00,44.5,28.0,29.70,NNW,335,4.0,11.0,52,0.00,,---,0.00,VWS V14.01,2013-03-01 17:15:00,
2013-03-01 12:17:00,44.5,27.5,29.70,North,360,7.0,9.0,51,0.00,,---,0.00,VWS V14.01,2013-03-01 17:17:00,
2013-03-01 12:19:00,44.5,27.5,29.70,NW,326,4.0,11.0,51,0.00,,---,0.00,VWS V14.01,2013-03-01 17:19:00,
2013-03-01 12:23:00,44.5,27.5,29.70,North,355,6.0,11.0,51,0.00,,---,0.00,VWS V14.01,2013-03-01 17:23:00,
2013-03-01 12:25:00,44.8,28.3,29.70,ENE,68,4.0,11.0,52,0.00,,---,0.00,VWS V14.01,2013-03-01 17:25:00,
2013-03-01 12:29:00,44.6,27.1,29.70,ENE,74,2.0,13.0,50,0.00,,---,0.00,VWS V14.01,2013-03-01 17:29:00,
2013-03-01 12:31:00,44.5,27.5,29.70,WSW,258,4.0,10.0,51,0.00,,---,0.00,VWS V14.01,2013-03-01 17:31:00,
2013-03-01 12:37:00,44.3,26.9,29.70,NW,315,7.0,13.0,50,0.00,,---,0.00,VWS V14.01,2013-03-01 17:37:00,
2013-03-01 12:43:00,44.1,27.1,29.70,NE,48,7.0,14.0,51,0.00,,---,0.00,VWS V14.01,2013-03-01 17:43:00,
2013-03-01 12:45:00,43.9,27.4,29.70,NW,321,7.0,14.0,52,0.00,,---,0.00,VWS V14.01,2013-03-01 17:45:00,
2013-03-01 12:49:00,43.6,27.6,29.70,West,281,4.0,10.0,53,0.00,,---,0.00,VWS V14.01,2013-03-01 17:49:00,
2013-03-01 12:51:00,43.5,27.5,29.70,NW,317,9.0,12.0,53,0.00,,---,0.00,VWS V14.01,2013-03-01 17:51:00,
2013-03-01 12:53:00,43.3,27.3,29.70,NNW,340,7.0,14.0,53,0.00,,---,0.00,VWS V14.01,2013-03-01 17:53:00,
2013-03-01 12:55:00,43.2,27.7,29.70,NNE,29,5.0,14.0,54,0.00,,---,0.00,VWS V14.01,2013-03-01 17:55:00,
2013-03-01 12:57:00,43.1,28.0,29.70,West,266,6.0,14.0,55,0.00,,---,0.00,VWS V14.01,2013-03-01 17:57:00,
2013-03-01 12:59:00,43.1,28.0,29.70,WSW,244,5.0,16.0,55,0.00,,---,0.00,VWS V14.01,2013-03-01 17:59:00,
2013-03-01 13:03:00,43.5,28.4,29.70,West,261,10.0,10.0,55,0.00,,---,0.00,VWS V14.01,2013-03-01 18:03:00,
2013-03-01 13:05:00,43.8,29.6,29.70,WSW,245,5.0,11.0,57,0.00,,---,0.00,VWS V14.01,2013-03-01 18:05:00,
2013-03-01 13:11:00,43.9,27.9,29.70,West,272,9.0,15.0,53,0.00,,---,0.00,VWS V14.01,2013-03-01 18:11:00,
2013-03-01 13:13:00,43.8,27.8,29.70,NNW,341,4.0,15.0,53,0.00,,---,0.00,VWS V14.01,2013-03-01 18:13:00,
2013-03-01 13:15:00,43.9,28.4,29.70,West,267,10.0,15.0,54,0.00,,---,0.00,VWS V14.01,2013-03-01 18:15:00,
2013-03-01 13:19:00,44.2,29.1,29.70,WNW,292,4.0,16.0,55,0.00,,---,0.00,VWS V14.01,2013-03-01 18:19:00,
2013-03-01 13:25:00,44.3,28.3,29.70,West,276,6.0,16.0,53,0.00,,---,0.00,VWS V14.01,2013-03-01 18:25:00,
2013-03-01 13:27:00,44.2,28.2,29.70,West,269,5.0,16.0,53,0.00,,---,0.00,VWS V14.01,2013-03-01 18:27:00,
2013-03-01 13:30:00,44.2,29.1,29.70,WNW,283,8.0,16.0,55,0.00,,---,0.00,VWS V14.01,2013-03-01 18:30:00,
2013-03-01 13:33:00,44.3,28.3,29.70,WNW,294,6.0,13.0,53,0.00,,---,0.00,VWS V14.01,2013-03-01 18:33:00,
2013-03-01 13:37:00,44.9,28.4,29.70,West,271,7.0,14.0,52,0.00,,---,0.00,VWS V14.01,2013-03-01 18:37:00,
2013-03-01 13:43:00,44.9,28.4,29.70,WNW,298,5.0,15.0,52,0.00,,---,0.00,VWS V14.01,2013-03-01 18:43:00,
2013-03-01 13:45:00,44.8,27.3,29.70,West,270,5.0,15.0,50,0.00,,---,0.00,VWS V14.01,2013-03-01 18:45:00,
2013-03-01 13:49:00,44.5,27.5,29.69,West,266,8.0,8.0,51,0.00,,---,0.00,VWS V14.01,2013-03-01 18:49:00,
2013-03-01 13:53:00,43.9,28.4,29.69,North,360,4.0,17.0,54,0.00,,---,0.00,VWS V14.01,2013-03-01 18:53:00,
2013-03-01 13:57:00,43.3,28.2,29.70,WSW,250,7.0,17.0,55,0.00,,---,0.00,VWS V14.01,2013-03-01 18:57:00,
2013-03-01 13:59:00,43.2,28.1,29.70,NW,326,5.0,17.0,55,0.00,,---,0.00,VWS V14.01,2013-03-01 18:59:00,
2013-03-01 14:03:00,43.1,27.6,29.70,NW,318,9.0,13.0,54,0.00,,---,0.00,VWS V14.01,2013-03-01 19:03:00,
2013-03-01 14:05:00,42.9,27.9,29.70,WNW,298,4.0,13.0,55,0.00,,---,0.00,VWS V14.01,2013-03-01 19:05:00,
2013-03-01 14:11:00,42.6,28.0,29.70,WNW,288,4.0,13.0,56,0.00,,---,0.00,VWS V14.01,2013-03-01 19:11:00,
2013-03-01 14:13:00,42.6,28.5,29.70,West,259,3.0,13.0,57,0.00,,---,0.00,VWS V14.01,2013-03-01 19:13:00,
2013-03-01 14:15:00,42.6,28.0,29.70,WNW,288,1.0,13.0,56,0.00,,---,0.00,VWS V14.01,2013-03-01 19:15:00,
2013-03-01 14:21:00,42.6,27.6,29.70,West,259,3.0,9.0,55,0.00,,---,0.00,VWS V14.01,2013-03-01 19:21:00,
2013-03-01 14:25:00,42.6,27.6,29.70,NW,307,2.0,9.0,55,0.00,,---,0.00,VWS V14.01,2013-03-01 19:25:00,
2013-03-01 14:27:00,42.6,27.6,29.70,WNW,296,3.0,10.0,55,0.00,,---,0.00,VWS V14.01,2013-03-01 19:27:00,
2013-03-01 14:30:00,42.8,28.2,29.70,West,261,2.0,10.0,56,0.00,,---,0.00,VWS V14.01,2013-03-01 19:30:00,
2013-03-01 14:33:00,42.8,27.8,29.70,WNW,293,3.0,9.0,55,0.00,,---,0.00,VWS V14.01,2013-03-01 19:33:00,
2013-03-01 14:37:00,42.9,27.9,29.70,South,180,5.0,10.0,55,0.00,,---,0.00,VWS V14.01,2013-03-01 19:37:00,
2013-03-01 14:39:00,42.9,28.3,29.70,WSW,252,4.0,10.0,56,0.00,,---,0.00,VWS V14.01,2013-03-01 19:39:00,
2013-03-01 14:45:00,42.8,27.8,29.70,WSW,246,3.0,10.0,55,0.00,,---,0.00,VWS V14.01,2013-03-01 19:45:00,
2013-03-01 14:47:00,42.6,27.6,29.71,NW,309,10.0,11.0,55,0.00,,---,0.00,VWS V14.01,2013-03-01 19:47:00,
2013-03-01 14:49:00,42.5,27.0,29.71,NNE,14,9.0,13.0,54,0.00,,---,0.00,VWS V14.01,2013-03-01 19:49:00,
2013-03-01 14:55:00,43.3,28.7,29.70,WSW,243,9.0,13.0,56,0.00,,---,0.00,VWS V14.01,2013-03-01 19:55:00,
2013-03-01 14:57:00,43.8,27.3,29.70,WNW,296,9.0,13.0,52,0.00,,---,0.00,VWS V14.01,2013-03-01 19:57:00,
2013-03-01 14:59:00,43.8,26.9,29.70,SW,229,3.0,14.0,51,0.00,,---,0.00,VWS V14.01,2013-03-01 19:59:00,
2013-03-01 15:03:00,43.3,27.3,29.71,NE,44,3.0,12.0,53,0.00,,---,0.00,VWS V14.01,2013-03-01 20:03:00,
2013-03-01 15:09:00,42.8,27.3,29.71,WNW,300,1.0,14.0,54,0.00,,---,0.00,VWS V14.01,2013-03-01 20:09:00,
2013-03-01 15:11:00,42.8,27.3,29.71,West,273,6.0,14.0,54,0.00,,---,0.00,VWS V14.01,2013-03-01 20:11:00,
2013-03-01 15:15:00,42.6,27.1,29.71,NW,305,7.0,14.0,54,0.00,,---,0.00,VWS V14.01,2013-03-01 20:15:00,
2013-03-01 15:17:00,42.5,27.0,29.71,NW,307,6.0,11.0,54,0.00,,---,0.00,VWS V14.01,2013-03-01 20:17:00,
2013-03-01 15:21:00,42.3,26.9,29.71,NW,323,7.0,15.0,54,0.00,,---,0.00,VWS V14.01,2013-03-01 20:21:00,
2013-03-01 15:23:00,42.2,27.2,29.71,West,263,10.0,15.0,55,0.00,,---,0.00,VWS V14.01,2013-03-01 20:23:00,
2013-03-01 15:27:00,42.1,27.5,29.71,West,276,4.0,15.0,56,0.00,,---,0.00,VWS V14.01,2013-03-01 20:27:00,
2013-03-01 15:29:00,42.1,27.5,29.71,WNW,290,4.0,15.0,56,0.00,,---,0.00,VWS V14.01,2013-03-01 20:29:00,
2013-03-01 15:33:00,41.9,27.4,29.71,WNW,288,3.0,4.0,56,0.00,,---,0.00,VWS V14.01,2013-03-01 20:33:00,
2013-03-01 15:39:00,42.1,27.5,29.71,WSW,244,0.0,5.0,56,0.00,,---,0.00,VWS V14.01,2013-03-01 20:39:00,
2013-03-01 15:41:00,42.1,27.5,29.71,West,278,4.0,7.0,56,0.00,,---,0.00,VWS V14.01,2013-03-01 20:41:00,
2013-03-01 15:45:00,42.2,27.6,29.71,NW,309,3.0,7.0,56,0.00,,---,0.00,VWS V14.01,2013-03-01 20:45:00,
2013-03-01 15:51:00,42.2,27.2,29.71,SW,225,3.0,15.0,55,0.00,,---,0.00,VWS V14.01,2013-03-01 20:51:00,
2013-03-01 15:53:00,42.2,27.2,29.70,West,265,5.0,15.0,55,0.00,,---,0.00,VWS V14.01,2013-03-01 20:53:00,
2013-03-01 15:55:00,42.2,27.2,29.71,SW,232,3.0,15.0,55,0.00,,---,0.00,VWS V14.01,2013-03-01 20:55:00,
2013-03-01 15:57:00,42.2,27.6,29.71,West,275,6.0,15.0,56,0.00,,---,0.00,VWS V14.01,2013-03-01 20:57:00,
2013-03-01 16:02:00,42.2,27.2,29.71,NW,323,2.0,5.0,55,0.00,,---,0.00,VWS V14.01,2013-03-01 21:02:00,
2013-03-01 16:04:00,42.1,27.1,29.71,WNW,301,4.0,6.0,55,0.00,,---,0.00,VWS V14.01,2013-03-01 21:04:00,
2013-03-01 16:08:00,42.1,27.5,29.71,SW,227,12.0,12.0,56,0.00,,---,0.00,VWS V14.01,2013-03-01 21:08:00,
2013-03-01 16:10:00,41.9,27.8,29.71,WNW,292,7.0,12.0,57,0.00,,---,0.00,VWS V14.01,2013-03-01 21:10:00,
2013-03-01 16:15:00,41.6,27.1,29.71,NW,310,2.0,12.0,56,0.00,,---,0.00,VWS V14.01,2013-03-01 21:15:00,
2013-03-01 16:22:00,41.5,27.8,29.71,NW,306,5.0,12.0,58,0.00,,---,0.00,VWS V14.01,2013-03-01 21:22:00,
2013-03-01 16:24:00,41.5,27.4,29.71,West,259,3.0,12.0,57,0.00,,---,0.00,VWS V14.01,2013-03-01 21:24:00,
2013-03-01 16:30:00,41.3,27.6,29.72,NW,313,2.0,13.0,58,0.00,,---,0.00,VWS V14.01,2013-03-01 21:30:00,
2013-03-01 16:36:00,41.2,27.6,29.72,NW,314,3.0,15.0,58,0.00,,---,0.00,VWS V14.01,2013-03-01 21:36:00,
2013-03-01 16:38:00,41.1,27.0,29.72,NNW,341,2.0,15.0,57,0.00,,---,0.00,VWS V14.01,2013-03-01 21:38:00,
2013-03-01 16:42:00,41.2,27.6,29.72,NW,317,3.0,15.0,58,0.00,,---,0.00,VWS V14.01,2013-03-01 21:42:00,
2013-03-01 16:44:00,41.2,27.1,29.72,WSW,252,5.0,15.0,57,0.00,,---,0.00,VWS V14.01,2013-03-01 21:44:00,
2013-03-01 16:45:00,41.2,27.1,29.72,WSW,252,5.0,15.0,57,0.00,,---,0.00,VWS V14.01,2013-03-01 21:45:00,
2013-03-01 16:46:00,41.2,27.1,29.72,WSW,253,11.0,11.0,57,0.00,,---,0.00,VWS V14.01,2013-03-01 21:46:00,
2013-03-01 16:50:00,41.1,27.5,29.72,NW,313,3.0,11.0,58,0.00,,---,0.00,VWS V14.01,2013-03-01 21:50:00,
2013-03-01 16:56:00,40.9,27.3,29.72,West,260,3.0,14.0,58,0.00,,---,0.00,VWS V14.01,2013-03-01 21:56:00,
2013-03-01 17:00:00,40.9,27.3,29.72,WNW,285,3.0,14.0,58,0.00,,---,0.00,VWS V14.01,2013-03-01 22:00:00,
2013-03-01 17:02:00,40.9,27.3,29.72,WNW,298,3.0,4.0,58,0.00,,---,0.00,VWS V14.01,2013-03-01 22:02:00,
2013-03-01 17:04:00,40.9,27.3,29.73,West,261,3.0,7.0,58,0.00,,---,0.00,VWS V14.01,2013-03-01 22:04:00,
2013-03-01 17:10:00,40.8,26.8,29.73,NNW,330,9.0,14.0,57,0.00,,---,0.00,VWS V14.01,2013-03-01 22:10:00,
2013-03-01 17:12:00,40.8,26.8,29.73,NW,321,1.0,14.0,57,0.00,,---,0.00,VWS V14.01,2013-03-01 22:12:00,
2013-03-01 17:15:00,40.6,27.0,29.73,NNE,14,7.0,14.0,58,0.00,,---,0.00,VWS V14.01,2013-03-01 22:15:00,
2013-03-01 17:18:00,40.6,27.4,29.73,NW,325,9.0,12.0,59,0.00,,---,0.00,VWS V14.01,2013-03-01 22:18:00,
2013-03-01 17:24:00,40.3,27.1,29.73,WNW,294,5.0,14.0,59,0.00,,---,0.00,VWS V14.01,2013-03-01 22:24:00,
2013-03-01 17:30:00,40.2,27.0,29.73,NW,325,2.0,14.0,59,0.00,,---,0.00,VWS V14.01,2013-03-01 22:30:00,
2013-03-01 17:34:00,40.2,27.0,29.73,WNW,288,3.0,9.0,59,0.00,,---,0.00,VWS V14.01,2013-03-01 22:34:00,
2013-03-01 17:40:00,40.2,26.2,29.73,WSW,247,4.0,12.0,57,0.00,,---,0.00,VWS V14.01,2013-03-01 22:40:00,
2013-03-01 17:42:00,40.2,26.2,29.74,West,271,5.0,12.0,57,0.00,,---,0.00,VWS V14.01,2013-03-01 22:42:00,
2013-03-01 17:45:00,40.2,26.6,29.74,WNW,299,4.0,12.0,58,0.00,,---,0.00,VWS V14.01,2013-03-01 22:45:00,
2013-03-01 17:46:00,40.2,26.6,29.74,West,272,5.0,5.0,58,0.00,,---,0.00,VWS V14.01,2013-03-01 22:46:00,
2013-03-01 17:48:00,40.2,26.6,29.74,NW,309,5.0,10.0,58,0.00,,---,0.00,VWS V14.01,2013-03-01 22:48:00,
2013-03-01 17:50:00,40.2,26.6,29.74,WNW,290,4.0,10.0,58,0.00,,---,0.00,VWS V14.01,2013-03-01 22:50:00,
2013-03-01 17:52:00,40.1,26.5,29.74,West,267,1.0,10.0,58,0.00,,---,0.00,VWS V14.01,2013-03-01 22:52:00,
2013-03-01 17:56:00,40.1,26.1,29.74,NNW,341,3.0,13.0,57,0.00,,---,0.00,VWS V14.01,2013-03-01 22:56:00,
2013-03-01 17:58:00,40.1,26.5,29.74,WNW,294,6.0,13.0,58,0.00,,---,0.00,VWS V14.01,2013-03-01 22:58:00,
2013-03-01 18:00:00,40.1,26.1,29.74,West,277,3.0,13.0,57,0.00,,---,0.00,VWS V14.01,2013-03-01 23:00:00,
2013-03-01 18:06:00,39.9,26.3,29.75,WNW,292,7.0,11.0,58,0.00,,---,0.00,VWS V14.01,2013-03-01 23:06:00,
2013-03-01 18:10:00,39.9,26.3,29.75,NW,325,3.0,11.0,58,0.00,,---,0.00,VWS V14.01,2013-03-01 23:10:00,
2013-03-01 18:12:00,39.9,25.9,29.75,WNW,296,2.0,11.0,57,0.00,,---,0.00,VWS V14.01,2013-03-01 23:12:00,
2013-03-01 18:14:00,39.9,25.9,29.75,West,277,4.0,11.0,57,0.00,,---,0.00,VWS V14.01,2013-03-01 23:14:00,
2013-03-01 18:15:00,39.8,26.2,29.75,WNW,301,2.0,11.0,58,0.00,,---,0.00,VWS V14.01,2013-03-01 23:15:00,
2013-03-01 18:18:00,39.8,25.8,29.75,WSW,245,10.0,10.0,57,0.00,,---,0.00,VWS V14.01,2013-03-01 23:18:00,
2013-03-01 18:20:00,39.8,26.2,29.75,SW,235,4.0,10.0,58,0.00,,---,0.00,VWS V14.01,2013-03-01 23:20:00,
2013-03-01 18:26:00,39.6,26.1,29.75,WNW,284,10.0,11.0,58,0.00,,---,0.00,VWS V14.01,2013-03-01 23:26:00,
2013-03-01 18:28:00,39.6,26.5,29.75,NW,312,2.0,11.0,59,0.00,,---,0.00,VWS V14.01,2013-03-01 23:28:00,
2013-03-01 18:30:00,39.6,26.5,29.75,NW,325,5.0,11.0,59,0.00,,---,0.00,VWS V14.01,2013-03-01 23:30:00,
2013-03-01 18:34:00,39.5,26.4,29.75,NNE,21,3.0,7.0,59,0.00,,---,0.00,VWS V14.01,2013-03-01 23:34:00,
2013-03-01 18:38:00,39.5,26.8,29.76,West,277,4.0,10.0,60,0.00,,---,0.00,VWS V14.01,2013-03-01 23:38:00,
2013-03-01 18:42:00,39.3,26.6,29.76,WSW,254,0.0,10.0,60,0.00,,---,0.00,VWS V14.01,2013-03-01 23:42:00,
2013-03-01 18:45:00,39.3,26.6,29.76,West,279,2.0,10.0,60,0.00,,---,0.00,VWS V14.01,2013-03-01 23:45:00,
2013-03-01 18:48:00,39.3,26.6,29.76,NW,325,4.0,5.0,60,0.00,,---,0.00,VWS V14.01,2013-03-01 23:48:00,
2013-03-01 18:50:00,39.3,26.6,29.76,West,279,6.0,10.0,60,0.00,,---,0.00,VWS V14.01,2013-03-01 23:50:00,
2013-03-01 18:54:00,39.2,26.9,29.76,NW,311,2.0,11.0,61,0.00,,---,0.00,VWS V14.01,2013-03-01 23:54:00,
2013-03-01 18:56:00,39.1,26.8,29.76,NW,317,2.0,11.0,61,0.00,,---,0.00,VWS V14.01,2013-03-01 23:56:00,
2013-03-01 19:00:00,39.1,26.4,29.76,North,360,5.0,11.0,60,0.00,,---,0.00,VWS V14.01,2013-03-02 00:00:00,
2013-03-01 19:02:00,39.1,26.8,29.76,WSW,250,10.0,10.0,61,0.00,,---,0.00,VWS V14.01,2013-03-02 00:02:00,
2013-03-01 19:08:00,38.9,26.6,29.76,NW,307,5.0,12.0,61,0.00,,---,0.00,VWS V14.01,2013-03-02 00:08:00,
2013-03-01 19:12:00,38.9,26.6,29.77,NW,321,4.0,12.0,61,0.00,,---,0.00,VWS V14.01,2013-03-02 00:12:00,
2013-03-01 19:14:00,38.8,26.5,29.77,West,260,5.0,12.0,61,0.00,,---,0.00,VWS V14.01,2013-03-02 00:14:00,
2013-03-01 19:16:00,38.8,26.1,29.77,West,267,6.0,10.0,60,0.00,,---,0.00,VWS V14.01,2013-03-02 00:16:00,
2013-03-01 19:20:00,38.8,26.1,29.77,NW,325,4.0,10.0,60,0.00,,---,0.00,VWS V14.01,2013-03-02 00:20:00,
2013-03-01 19:22:00,38.8,26.1,29.77,WSW,253,5.0,10.0,60,0.00,,---,0.00,VWS V14.01,2013-03-02 00:22:00,
2013-03-01 19:26:00,38.8,26.1,29.77,NNE,30,6.0,10.0,60,0.00,,---,0.00,VWS V14.01,2013-03-02 00:26:00,
2013-03-01 19:30:00,38.8,26.1,29.77,WNW,293,3.0,10.0,60,0.00,,---,0.00,VWS V14.01,2013-03-02 00:30:00,
2013-03-01 19:32:00,38.6,25.9,29.77,WNW,291,0.0,3.0,60,0.00,,---,0.00,VWS V14.01,2013-03-02 00:32:00,
2013-03-01 19:36:00,38.6,25.9,29.77,WNW,294,0.0,8.0,60,0.00,,---,0.00,VWS V14.01,2013-03-02 00:36:00,
2013-03-01 19:40:00,38.5,26.2,29.77,NW,315,3.0,8.0,61,0.00,,---,0.00,VWS V14.01,2013-03-02 00:40:00,
2013-03-01 19:42:00,38.5,25.8,29.77,WNW,289,3.0,8.0,60,0.00,,---,0.00,VWS V14.01,2013-03-02 00:42:00,
2013-03-01 19:48:00,38.3,26.0,29.77,NW,325,3.0,6.0,61,0.00,,---,0.00,VWS V14.01,2013-03-02 00:48:00,
2013-03-01 19:52:00,38.3,26.0,29.77,West,265,3.0,9.0,61,0.00,,---,0.00,VWS V14.01,2013-03-02 00:52:00,
2013-03-01 19:54:00,38.3,26.0,29.78,West,273,1.0,9.0,61,0.00,,---,0.00,VWS V14.01,2013-03-02 00:54:00,
2013-03-01 19:56:00,38.3,26.4,29.78,WNW,288,2.0,9.0,62,0.00,,---,0.00,VWS V14.01,2013-03-02 00:56:00,
2013-03-01 20:00:00,38.2,26.3,29.78,WSW,255,4.0,11.0,62,0.00,,---,0.00,VWS V14.01,2013-03-02 01:00:00,
2013-03-01 20:02:00,38.2,26.3,29.78,NW,319,3.0,7.0,62,0.00,,---,0.00,VWS V14.01,2013-03-02 01:02:00,
2013-03-01 20:08:00,38.0,26.1,29.78,NW,309,3.0,7.0,62,0.00,,---,0.00,VWS V14.01,2013-03-02 01:08:00,
2013-03-01 20:12:00,37.9,25.7,29.78,NW,305,5.0,9.0,61,0.00,,---,0.00,VWS V14.01,2013-03-02 01:12:00,
2013-03-01 20:14:00,37.9,25.7,29.78,WNW,291,9.0,13.0,61,0.00,,---,0.00,VWS V14.01,2013-03-02 01:14:00,
2013-03-01 20:15:00,37.9,25.3,29.78,WNW,286,4.0,13.0,60,0.00,,---,0.00,VWS V14.01,2013-03-02 01:15:00,
2013-03-01 20:21:00,37.8,25.2,29.78,West,260,5.0,8.0,60,0.00,,---,0.00,VWS V14.01,2013-03-02 01:21:00,
2013-03-01 20:25:00,37.8,25.2,29.78,West,279,5.0,14.0,60,0.00,,---,0.00,VWS V14.01,2013-03-02 01:25:00,
2013-03-01 20:27:00,37.8,25.6,29.78,NW,319,1.0,14.0,61,0.00,,---,0.00,VWS V14.01,2013-03-02 01:27:00,
2013-03-01 20:30:00,37.8,25.6,29.78,WNW,296,0.0,14.0,61,0.00,,---,0.00,VWS V14.01,2013-03-02 01:30:00,
2013-03-01 20:33:00,37.6,25.4,29.78,WNW,283,4.0,4.0,61,0.00,,---,0.00,VWS V14.01,2013-03-02 01:33:00,
2013-03-01 20:35:00,37.6,25.8,29.78,West,259,3.0,7.0,62,0.00,,---,0.00,VWS V14.01,2013-03-02 01:35:00,
2013-03-01 20:37:00,37.6,25.4,29.78,West,259,3.0,7.0,61,0.00,,---,0.00,VWS V14.01,2013-03-02 01:37:00,
2013-03-01 20:39:00,37.6,25.4,29.78,West,271,3.0,10.0,61,0.00,,---,0.00,VWS V14.01,2013-03-02 01:39:00,
2013-03-01 20:41:00,37.6,25.4,29.78,West,263,9.0,11.0,61,0.00,,---,0.00,VWS V14.01,2013-03-02 01:41:00,
2013-03-01 20:45:00,37.5,25.7,29.78,WNW,284,0.0,11.0,62,0.00,,---,0.00,VWS V14.01,2013-03-02 01:45:00,
2013-03-01 20:47:00,37.5,25.7,29.78,WNW,284,1.0,6.0,62,0.00,,---,0.00,VWS V14.01,2013-03-02 01:47:00,
2013-03-01 20:53:00,37.5,25.7,29.78,WNW,284,3.0,6.0,62,0.00,,---,0.00,VWS V14.01,2013-03-02 01:53:00,
2013-03-01 20:55:00,37.3,25.9,29.78,West,263,1.0,6.0,63,0.00,,---,0.00,VWS V14.01,2013-03-02 01:55:00,
2013-03-01 21:00:00,37.2,25.4,29.78,NNW,327,4.0,13.0,62,0.00,,---,0.00,VWS V14.01,2013-03-02 02:00:00,
2013-03-01 21:01:00,37.2,25.4,29.78,NW,311,0.0,4.0,62,0.00,,---,0.00,VWS V14.01,2013-03-02 02:01:00,
2013-03-01 21:05:00,37.2,25.4,29.78,North,360,5.0,11.0,62,0.00,,---,0.00,VWS V14.01,2013-03-02 02:05:00,
2013-03-01 21:09:00,37.2,25.8,29.78,WNW,300,5.0,13.0,63,0.00,,---,0.00,VWS V14.01,2013-03-02 02:09:00,
2013-03-01 21:11:00,37.2,25.4,29.78,WNW,298,3.0,13.0,62,0.00,,---,0.00,VWS V14.01,2013-03-02 02:11:00,
2013-03-01 21:15:00,37.0,25.6,29.78,NW,308,4.0,13.0,63,0.00,,---,0.00,VWS V14.01,2013-03-02 02:15:00,
2013-03-01 21:19:00,37.0,25.6,29.78,NW,311,7.0,9.0,63,0.00,,---,0.00,VWS V14.01,2013-03-02 02:19:00,
2013-03-01 21:25:00,36.9,25.5,29.78,WNW,295,8.0,10.0,63,0.00,,---,0.00,VWS V14.01,2013-03-02 02:25:00,
2013-03-01 21:27:00,36.9,25.5,29.78,WNW,302,7.0,10.0,63,0.00,,---,0.00,VWS V14.01,2013-03-02 02:27:00,
2013-03-01 21:29:00,36.8,25.4,29.78,WNW,301,7.0,12.0,63,0.00,,---,0.00,VWS V14.01,2013-03-02 02:29:00,
2013-03-01 21:35:00,36.8,25.4,29.79,WNW,296,2.0,10.0,63,0.00,,---,0.00,VWS V14.01,2013-03-02 02:35:00,
2013-03-01 21:39:00,36.6,25.6,29.79,West,279,4.0,10.0,64,0.00,,---,0.00,VWS V14.01,2013-03-02 02:39:00,
2013-03-01 21:41:00,36.6,25.6,29.79,WNW,289,3.0,10.0,64,0.00,,---,0.00,VWS V14.01,2013-03-02 02:41:00,
2013-03-01 21:43:00,36.5,25.1,29.79,WNW,295,5.0,10.0,63,0.00,,---,0.00,VWS V14.01,2013-03-02 02:43:00,
2013-03-01 21:45:00,36.5,25.5,29.79,West,275,5.0,10.0,64,0.00,,---,0.00,VWS V14.01,2013-03-02 02:45:00,
2013-03-01 21:49:00,36.5,25.1,29.79,West,268,5.0,12.0,63,0.00,,---,0.00,VWS V14.01,2013-03-02 02:49:00,
2013-03-01 21:51:00,36.5,25.5,29.79,WNW,303,2.0,12.0,64,0.00,,---,0.00,VWS V14.01,2013-03-02 02:51:00,
2013-03-01 21:57:00,36.5,25.5,29.79,West,281,0.0,12.0,64,0.00,,---,0.00,VWS V14.01,2013-03-02 02:57:00,
2013-03-01 21:59:00,36.5,25.5,29.79,WSW,258,1.0,12.0,64,0.00,,---,0.00,VWS V14.01,2013-03-02 02:59:00,
2013-03-01 22:00:00,36.3,25.3,29.79,WSW,246,4.0,12.0,64,0.00,,---,0.00,VWS V14.01,2013-03-02 03:00:00,
2013-03-01 22:01:00,36.3,25.3,29.79,NNW,327,4.0,5.0,64,0.00,,---,0.00,VWS V14.01,2013-03-02 03:01:00,
2013-03-01 22:07:00,36.3,25.3,29.79,NW,315,2.0,10.0,64,0.00,,---,0.00,VWS V14.01,2013-03-02 03:07:00,
2013-03-01 22:15:00,36.2,25.2,29.79,WNW,292,3.0,10.0,64,0.00,,---,0.00,VWS V14.01,2013-03-02 03:15:00,
2013-03-01 22:30:00,36.0,25.0,29.79,WNW,292,4.0,14.0,64,0.00,,---,0.00,VWS V14.01,2013-03-02 03:30:00,
2013-03-01 22:45:00,35.9,24.9,29.79,NW,315,4.0,11.0,64,0.00,,---,0.00,VWS V14.01,2013-03-02 03:45:00,
2013-03-01 23:00:00,35.8,25.2,29.79,WNW,292,5.0,12.0,65,0.00,,---,0.00,VWS V14.01,2013-03-02 04:00:00,
2013-03-01 23:15:00,35.5,25.3,29.79,West,270,5.0,11.0,66,0.00,,---,0.00,VWS V14.01,2013-03-02 04:15:00,
2013-03-01 23:30:00,35.3,25.1,29.78,WNW,292,5.0,11.0,66,0.00,,---,0.00,VWS V14.01,2013-03-02 04:30:00,
2013-03-01 23:45:00,35.2,25.0,29.78,West,270,6.0,13.0,66,0.00,,---,0.00,VWS V14.01,2013-03-02 04:45:00,